This demonstration page uses our WeatherBlox Daily Observations layout. Learn more.

39.29038, -76.61219

Hourly Observations for April 26, 2016

Temp ( °F °C ) Dew Point ( °F °C ) Humidity (%) Winds ( mph kmh ) Pressure ( in mb ) Visibility ( mi km ) Precip ( " mm )
12:54 am 00:54 undefined 65 18.3 57 13.9 76 76 undefined N/A 29.78 1009 N/A 0 0
1:54 am 01:54 undefined 65 18.3 57 13.9 76 76 undefined N/A 29.76 1008 N/A 0 0
2:54 am 02:54 undefined 63 17.2 56 13.3 78 78 undefined N/A 29.75 1007 N/A 0 0
3:54 am 03:54 undefined 63 17.2 56 13.3 78 78 undefined N/A 29.74 1007 N/A 0 0
4:54 am 04:54 undefined 64 17.8 55 12.8 73 73 undefined N/A 29.74 1007 N/A 0 0
5:54 am 05:54 undefined 63 17.2 54 12.2 73 73 undefined N/A 29.73 1007 N/A 0 0
6:54 am 06:54 undefined 65 18.3 55 12.8 70 70 undefined N/A 29.75 1007 N/A 0 0
7:54 am 07:54 undefined 68 20 56 13.3 65 65 undefined N/A 29.75 1007 N/A 0 0
8:54 am 08:54 undefined 72 22.2 56 13.3 57 57 undefined N/A 29.74 1007 N/A 0 0
9:54 am 09:54 undefined 76 24.4 56 13.3 50 50 undefined N/A 29.73 1007 N/A 0 0
10:54 am 10:54 undefined 77 25 53 11.7 43 43 undefined N/A 29.73 1007 N/A 0 0
11:54 am 11:54 undefined 78 25.6 52 11.1 40 40 undefined N/A 29.7 1006 N/A 0 0
12:54 pm 12:54 undefined 82 27.8 51 10.6 34 34 undefined N/A 29.69 1005 N/A 0 0
1:54 pm 13:54 undefined 83 28.3 50 10 32 32 undefined N/A 29.67 1005 N/A 0 0
2:54 pm 14:54 undefined 84 28.9 51 10.6 32 32 undefined N/A 29.67 1005 N/A 0 0
3:54 pm 15:54 undefined 84 28.9 52 11.1 33 33 undefined N/A 29.66 1004 N/A 0 0
4:54 pm 16:54 undefined 85 29.4 53 11.7 33 33 undefined N/A 29.65 1004 N/A 0 0
5:54 pm 17:54 undefined 83 28.3 54 12.2 37 37 undefined N/A 29.66 1004 N/A 0 0
6:54 pm 18:54 undefined 81 27.2 51 10.6 35 35 undefined N/A 29.67 1005 N/A 0 0
7:54 pm 19:54 undefined 79 26.1 54 12.2 42 42 undefined N/A 29.68 1005 N/A 0 0
8:54 pm 20:54 undefined 77 25 54 12.2 45 45 undefined N/A 29.7 1006 N/A 0 0
9:54 pm 21:54 undefined 76 24.4 54 12.2 47 47 undefined N/A 29.72 1006 N/A 0 0
10:54 pm 22:54 undefined 74 23.3 55 12.8 52 52 undefined N/A 29.72 1006 N/A 0 0
11:54 pm 23:54 undefined 74 23.3 55 12.8 52 52 undefined N/A 29.73 1007 N/A 0 0

Powered by AerisWeather